Regional Weather Roundup
Issued by NWS

Home | Current Version | Previous Version | Graphics & Text | Print | Product List | Glossary On
Versions: 1 2 3 4 5 6 7 8 9 10 11 12 13 14 15 16 17 18 19 20 21 22 23 24 25 26 27 28 29 30 31 32 33 34 35 36 37 38 39 40 41 42 43 44 45 46 47 48 49 50
000
ASUS45 KSLC 291410
RWRUT

UTAH REGIONAL WEATHER ROUNDUP
NATIONAL WEATHER SERVICE SALT LAKE CITY UT
800 AM MDT TUE JUL 29 2014

UTZ001>011-023>025-291500-

NORTHERN UTAH

CITY           SKY/WX    TMP DP  RH WIND       PRES   REMARKS
DUGWAY         PTSUNNY   66  60  81 S3        30.22
HILL AFB       LGT RAIN  66  58  77 SE12      30.22R
LOGAN          LGT RAIN  65  62  90 CALM      30.22S
OGDEN          CLOUDY    68  60  75 SW3       30.20R
PROVO AIRPORT  PTSUNNY   64  59  82 CALM      30.22S
SALT LAKE CITY CLOUDY    68  63  84 SE3       30.19R
VERNAL         CLOUDY    64  59  83 CALM      30.29R
WENDOVER       CLOUDY    68  61  77 E5        30.22R
HEBER CITY     CLOUDY    61  59  94 CALM      30.28S
WEST JORDAN    CLOUDY    68  66  94 SE5       30.22R

$$

UTZ012>022-026-027-291500-

SOUTHERN UTAH

CITY           SKY/WX    TMP DP  RH WIND       PRES   REMARKS
BRYCE CANYON   SUNNY     55  51  86 W3        30.43R
CEDAR CITY     PTSUNNY   66  53  63 S3        30.27R
MILFORD        PTSUNNY   71  54  54 SW10      30.22R
MOAB/CYNLANDS  SUNNY     66  62  87 E7        30.24S
PRICE          PTSUNNY   63  57  81 E7        30.32S
ST GEORGE      CLOUDY    75  55  50 E9        30.13R
KANAB            N/A     64  55  72 N3        30.30R

$$

REGIONAL REPORTS     COLORADO/ARIZONA

CITY           SKY/WX    TMP DP  RH WIND       PRES   REMARKS
CRAIG, CO      CLOUDY    57  55  93 CALM      30.35R
GRAND JUNCTION CLOUDY    64  60  87 SE12      30.28R
RIFLE          LGT RAIN  62  59  90 W3        30.33R
MONTROSE       LGT RAIN  62  58  86 N6        30.35S
CORTEZ         CLOUDY    62  61  96 CALM      30.35R
PAGE, AZ       SUNNY     77  53  43 SE3       30.21S
GRAND CANYON   SUNNY     58  52  80 CALM      30.38R
KINGMAN        SUNNY     73  58  59 SE5       30.14R
FLAGSTAFF      SUNNY     58  51  78 CALM      30.42R

$$

REGIONAL REPORTS    NEVADA/IDAHO/WYOMING

CITY           SKY/WX    TMP DP  RH WIND       PRES   REMARKS
LAS VEGAS, NV  MOSUNNY   80  62  54 S9        30.01R
ELY            CLOUDY    59  56  89 CALM      30.32S
ELKO           CLOUDY    64  54  69 CALM      30.24S
POCATELLO, ID  PTSUNNY   64  62  93 CALM      30.22S
BURLEY         MOSUNNY   63  57  81 CALM      30.18R
EVANSTON, WY   LGT RAIN  57  55  93 CALM      30.36S
ROCK SPRINGS   CLOUDY    66  45  46 E6        30.35R

$$



USA.gov is the U.S. government's official web portal to all federal, state and local government web resources and services.